Weather History for Lakeville, MN

Change the Weather History Date:

Wednesday, June 12, 2013

  Actual Average Record
Temperature  
Mean Temperature 66 °F -  
Max Temperature 69 °F 80 °F 95 °F (1956)
Min Temperature 62 °F 57 °F 41 °F (1985)
Growing Degree Days 16 (Base 50)    
Moisture  
Dew Point 62 °F    
Average Humidity 90    
Maximum Humidity 100    
Minimum Humidity 68    
Precipitation  
Precipitation 0.00 in - - ()
Sea Level Pressure  
Sea Level Pressure 29.83 in    
Wind  
Wind Speed 6 mph (NNE)    
Max Wind Speed 15 mph    
Max Gust Speed 17 mph    
Visibility 7 miles    
Events Rain , Thunderstorm    
Averages and records for this station are not official NWS values.
T = Trace of Precipitation, MM = Missing Value Source: NWS Daily Summary

Daily Weather History Graph

Daily Weather History Graph

Search for Another Location

Airport:

Trip Planner

Search our weather history database for the weather conditions in past years. The results will help you decide how hot, cold, wet, or windy it might be!

Date:

Astronomy

Jun. 12, 2013 Rise Set
Actual Time 5:27 AM CDT 8:58 PM CDT
Civil Twilight 4:50 AM CDT 9:35 PM CDT
Nautical Twilight 4:01 AM CDT 10:24 PM CDT
Astronomical Twilight 2:58 AM CDT 11:27 PM CDT
Moon 9:14 AM CDT (6/12) 11:26 PM CDT (6/12)
Length of Visible Light 16h 45m
Length of Day
15h 31m
Waxing Crescent, 14% of the Moon is Illuminated
Jun 12
Waxing Crescent
Jun 16
First Quarter
Jun 23
Full
Jun 29
Last Quarter
Jul 8
New

Hourly Weather History & Observations

Time (CDT) Temp. Dew Point Humidity Pressure Visibility Wind Dir Wind Speed Gust Speed Precip Events Conditions
12:12 AM 64.4 °F 62.6 °F 94% 29.89 in 5.0 mi Calm Calm - N/A   Clear
12:31 AM 64.4 °F 62.6 °F 94% 29.87 in 5.0 mi SE 4.6 mph - N/A Thunderstorm Clear
12:52 AM 64.4 °F 62.6 °F 94% 29.88 in 4.0 mi Calm Calm - N/A Thunderstorm Clear
1:12 AM 64.4 °F 62.6 °F 94% 29.87 in 4.0 mi Calm Calm - N/A Thunderstorm Clear
1:32 AM 62.6 °F 62.6 °F 100% 29.88 in 3.0 mi SSE 3.5 mph - N/A Thunderstorm Clear
1:52 AM 62.6 °F 62.6 °F 100% 29.86 in 2.5 mi SE 4.6 mph - N/A Thunderstorm Clear
2:12 AM 64.4 °F 62.6 °F 94% 29.87 in 4.0 mi Calm Calm - N/A Rain Light Rain
2:32 AM 62.6 °F 62.6 °F 100% 29.88 in 2.5 mi NNE 4.6 mph - N/A   Clear
2:52 AM 62.6 °F 62.6 °F 100% 29.88 in 4.0 mi Calm Calm - N/A   Mostly Cloudy
3:12 AM 62.6 °F 62.6 °F 100% 29.86 in 3.0 mi ENE 4.6 mph - N/A   Scattered Clouds
3:32 AM 62.6 °F 62.6 °F 100% 29.85 in 2.5 mi NE 5.8 mph - N/A   Clear
3:52 AM 62.6 °F 62.6 °F 100% 29.83 in 4.0 mi ENE 8.1 mph - N/A   Clear
4:12 AM 64.4 °F 62.6 °F 94% 29.82 in 5.0 mi ENE 5.8 mph - N/A   Clear
4:32 AM 64.4 °F 62.6 °F 94% 29.86 in 5.0 mi Calm Calm - N/A   Clear
4:52 AM 64.4 °F 62.6 °F 94% 29.85 in 4.0 mi South 4.6 mph - N/A Rain , Thunderstorm Rain
5:12 AM 64.4 °F 62.6 °F 94% 29.83 in 5.0 mi ESE 4.6 mph - N/A Rain Light Rain
5:32 AM 62.6 °F 62.6 °F 100% 29.82 in 4.0 mi ESE 9.2 mph - N/A Rain Light Rain
5:52 AM 62.6 °F 62.6 °F 100% 29.82 in 5.0 mi Calm Calm - N/A   Light Drizzle
6:12 AM 62.6 °F 62.6 °F 100% 29.81 in 4.0 mi NE 5.8 mph - N/A   Mostly Cloudy
6:31 AM 62.6 °F 62.6 °F 100% 29.80 in 4.0 mi NE 10.4 mph - N/A   Scattered Clouds
6:52 AM 62.6 °F 62.6 °F 100% 29.79 in 4.0 mi NE 11.5 mph 17.3 mph N/A   Clear
7:12 AM 64.4 °F 62.6 °F 94% 29.80 in 7.0 mi ENE 8.1 mph - N/A   Scattered Clouds
7:31 AM 64.4 °F 62.6 °F 94% 29.80 in 7.0 mi East 10.4 mph - N/A   Mostly Cloudy
7:52 AM 62.6 °F 62.6 °F 100% 29.82 in 1.2 mi ENE 3.5 mph - N/A Rain , Thunderstorm Thunderstorms and Rain
8:12 AM 62.6 °F 62.6 °F 100% 29.83 in 4.0 mi Calm Calm - N/A Rain , Thunderstorm Light Thunderstorms and Rain
8:32 AM 62.6 °F 62.6 °F 100% 29.86 in 2.0 mi NW 11.5 mph - N/A Rain , Thunderstorm Heavy Thunderstorms and Rain
8:52 AM 64.4 °F 64.4 °F 100% 29.83 in 2.0 mi ESE 5.8 mph - N/A Rain , Thunderstorm Heavy Thunderstorms and Rain
9:12 AM 64.4 °F 62.6 °F 94% 29.81 in 5.0 mi East 12.7 mph - N/A Rain , Thunderstorm Light Thunderstorms and Rain
9:32 AM 62.6 °F 62.6 °F 100% 29.82 in 2.0 mi NNE 6.9 mph - N/A Rain , Thunderstorm Thunderstorms and Rain
9:51 AM 62.6 °F 62.6 °F 100% 29.82 in 2.5 mi North 6.9 mph - N/A Rain , Thunderstorm Light Thunderstorms and Rain
10:12 AM 62.6 °F 62.6 °F 100% 29.84 in 3.0 mi NNW 6.9 mph - N/A Rain , Thunderstorm Rain
10:32 AM 62.6 °F 62.6 °F 100% 29.84 in 3.0 mi North 6.9 mph 16.1 mph N/A Rain , Thunderstorm Light Thunderstorms and Rain
10:52 AM 62.6 °F 60.8 °F 94% 29.85 in 5.0 mi NNW 9.2 mph - N/A Rain Light Rain
11:12 AM 62.6 °F 60.8 °F 94% 29.82 in 2.5 mi NE 10.4 mph - N/A Rain , Thunderstorm Thunderstorms and Rain
11:31 AM 62.6 °F 62.6 °F 100% 29.80 in 4.0 mi East 13.8 mph - N/A Rain , Thunderstorm Light Thunderstorms and Rain
11:52 AM 62.6 °F 62.6 °F 100% 29.79 in 5.0 mi ENE 9.2 mph - N/A Rain Light Rain
12:12 PM 64.4 °F 64.4 °F 100% 29.81 in 7.0 mi East 10.4 mph - N/A   Overcast
12:31 PM 64.4 °F 64.4 °F 100% 29.81 in 7.0 mi ENE 9.2 mph - N/A   Overcast
12:52 PM 64.4 °F 64.4 °F 100% 29.81 in 10.0 mi ENE 8.1 mph - N/A   Overcast
1:12 PM 64.4 °F 62.6 °F 94% 29.82 in 7.0 mi NE 6.9 mph - N/A   Overcast
1:31 PM 64.4 °F 62.6 °F 94% 29.84 in 7.0 mi Calm Calm - N/A   Overcast
1:52 PM 64.4 °F 62.6 °F 94% 29.80 in 5.0 mi ENE 11.5 mph - N/A Rain Rain
2:12 PM 64.4 °F 64.4 °F 100% 29.79 in 10.0 mi East 11.5 mph - N/A   Overcast
2:31 PM 64.4 °F 64.4 °F 100% 29.79 in 10.0 mi East 10.4 mph - N/A   Overcast
2:52 PM 66.2 °F 64.4 °F 94% 29.80 in 10.0 mi NNE 8.1 mph - N/A Rain Light Rain
3:12 PM 66.2 °F 64.4 °F 94% 29.81 in 10.0 mi North 3.5 mph - N/A   Overcast
3:32 PM 69.8 °F 64.4 °F 83% 29.80 in 10.0 mi North 12.7 mph - N/A   Mostly Cloudy
3:52 PM 69.8 °F 64.4 °F 83% 29.79 in 10.0 mi NNE 13.8 mph - N/A   Mostly Cloudy
4:12 PM 69.8 °F 64.4 °F 83% 29.79 in 10.0 mi NNE 8.1 mph - N/A   Mostly Cloudy
4:32 PM 69.8 °F 64.4 °F 83% 29.79 in 10.0 mi NE 11.5 mph 16.1 mph N/A   Mostly Cloudy
4:52 PM 69.8 °F 62.6 °F 78% 29.79 in 10.0 mi NE 12.7 mph 17.3 mph N/A   Scattered Clouds
5:12 PM 69.8 °F 62.6 °F 78% 29.79 in 10.0 mi NE 9.2 mph - N/A   Mostly Cloudy
5:32 PM 69.8 °F 64.4 °F 83% 29.79 in 10.0 mi NNE 8.1 mph - N/A   Mostly Cloudy
5:52 PM 69.8 °F 62.6 °F 78% 29.78 in 10.0 mi NNE 15.0 mph - N/A   Scattered Clouds
6:12 PM 69.8 °F 62.6 °F 78% 29.78 in 10.0 mi NNE 11.5 mph - N/A   Clear
6:32 PM 69.8 °F 62.6 °F 78% 29.79 in 10.0 mi North 10.4 mph - N/A   Scattered Clouds
6:52 PM 69.8 °F 62.6 °F 78% 29.81 in 10.0 mi North 8.1 mph - N/A   Mostly Cloudy
7:11 PM 69.8 °F 62.6 °F 78% 29.82 in 10.0 mi North 3.5 mph - N/A   Mostly Cloudy
7:32 PM 69.8 °F 60.8 °F 73% 29.83 in 10.0 mi NNW 4.6 mph - N/A   Overcast
7:52 PM 69.8 °F 60.8 °F 73% 29.84 in 10.0 mi NNW 6.9 mph - N/A   Overcast
8:11 PM 69.8 °F 60.8 °F 73% 29.84 in 10.0 mi NNW 6.9 mph - N/A   Overcast
8:32 PM 69.8 °F 60.8 °F 73% 29.84 in 10.0 mi NNW 6.9 mph - N/A   Overcast
8:52 PM 66.2 °F 60.8 °F 83% 29.85 in 10.0 mi NW 6.9 mph - N/A   Light Drizzle
9:11 PM 66.2 °F 59.0 °F 78% 29.85 in 10.0 mi NNW 9.2 mph - N/A Rain Rain
9:32 PM 66.2 °F 57.2 °F 73% 29.85 in 10.0 mi NW 8.1 mph - N/A   Scattered Clouds
9:52 PM 64.4 °F 59.0 °F 83% 29.86 in 10.0 mi NW 10.4 mph - N/A   Scattered Clouds
10:11 PM 64.4 °F 59.0 °F 83% 29.87 in 10.0 mi NW 10.4 mph - N/A   Clear
10:32 PM 64.4 °F 57.2 °F 77% 29.88 in 10.0 mi NW 10.4 mph - N/A   Clear
10:52 PM 64.4 °F 55.4 °F 73% 29.89 in 10.0 mi NNW 10.4 mph - N/A   Scattered Clouds
11:12 PM 64.4 °F 55.4 °F 73% 29.90 in 10.0 mi NNW 9.2 mph - N/A   Clear
11:32 PM 64.4 °F 53.6 °F 68% 29.91 in 10.0 mi NNW 9.2 mph - N/A   Clear
11:52 PM 64.4 °F 53.6 °F 68% 29.91 in 10.0 mi NNW 10.4 mph - N/A   Clear